Location: ????????
(55.0559°N, 39.1270°E)
Time: 08:37:32
(UTC+00:00)

Meteor 2-1 Rocket - Pass Details

Date: 15 November 2025
Orbit: 822 x 912 km, 81.3° (Epoch: 14 December)

Event Time Altitude Azimuth Distance (km) Brightness Sun altitude
Rises 03:04:54 0° 345° (NNW) 3,555 7.2 -15.5°
Reaches altitude 10° 03:07:24 10° 346° (NNW) 2,604 6.5 -15.2°
Maximum altitude 03:13:23 87° 76° (ENE) 907 4.4 -14.4°
Drops below altitude 10° 03:19:12 10° 167° (SSE) 2,540 7.0 -13.5°
Sets 03:21:36 0° 167° (SSE) 3,461 7.8 -13.2°
